Flag for U.S.A. Weather past 2 weeks in Abilene, Texas, U.S.A.

Now
48 °F

Clear.


Feels Like: 45 °F
Forecast: 45 / 74 °F
Wind: 7 mph from Southwest

Location: Abilene Regional Airport

Current Time: Mar 27, 2015 at 6:12:07 AM

Latest Report: Mar 27, 2015 at 4:52 AM


Visibility: 10 mi

Pressure: 30.11 "Hg

Humidity: 48%

Dew point: 29 °F

Location of AbileneLocation

Historic Weather in Abilene — Graph

°F

Abilene temperature yesterday

Maximum temperature yesterday: 64 °F (at 4:52 PM)
Minimum temperature yesterday: 43 °F (at 7:52 AM)
Average temperature yesterday: 53 °F

Past Weeks' High & Low Weather Summary

 TemperatureHumidityPressure
High87 °F (Mar 24, 4:52 PM)97% (Mar 20, 5:52 AM)30.34 "Hg (Mar 20, 5:52 AM)
Low38 °F (Mar 12, 7:52 AM)16% (Mar 24, 3:52 PM)29.68 "Hg (Mar 25, 5:52 PM)
Average60 °F65%30.05 "Hg
* Reported Mar 12 4:52 AM — Mar 27 4:52 AM, Abilene, Weather by CustomWeather, © 2015

Note: Actual official high and low records may vary slightly from our data, if they occured in-between our weather recording intervals... More about our weather records

Advertising

Abilene weather history for previous 24 hours

 ConditionsComfort  
Time TempWeatherWind HumidityBarometerVisibility
4:52 AM
Fri, Mar 27
48 °FClear.7 mph48%30.11 "Hg10 mi
3:52 AM46 °FClear.9 mph54%30.12 "Hg10 mi
2:52 AM43 °FClear.6 mph62%30.14 "Hg10 mi
1:52 AM43 °FClear.7 mph62%30.16 "Hg10 mi
12:52 AM43 °FClear.7 mph65%30.17 "Hg10 mi
11:52 PM
Thu, Mar 26
45 °FClear.8 mph60%30.19 "Hg10 mi
10:52 PM47 °FClear.8 mph54%30.19 "Hg10 mi
9:52 PM50 °FClear.6 mph46%30.18 "Hg10 mi
8:52 PM56 °FSunny.6 mph33%30.17 "Hg10 mi
7:52 PM59 °FSunny.9 mph28%30.16 "Hg10 mi
6:52 PM62 °FSunny.15 mph25%30.14 "Hg10 mi
5:52 PM63 °FSunny.17 mph23%30.13 "Hg10 mi
4:52 PM64 °FSunny.15 mph23%30.13 "Hg10 mi
3:52 PM62 °FSunny.18 mph26%30.15 "Hg10 mi
2:52 PM61 °FSunny.15 mph30%30.18 "Hg10 mi
1:52 PM59 °FSunny.21 mph36%30.21 "Hg10 mi
12:52 PM56 °FSunny.20 mph42%30.22 "Hg10 mi
11:52 AM53 °FSunny.17 mph48%30.24 "Hg10 mi
10:52 AM50 °FSunny.20 mph57%30.23 "Hg10 mi
9:52 AM47 °FSunny.22 mph64%30.22 "Hg10 mi
8:52 AM45 °FPassing clouds.21 mph74%30.19 "Hg10 mi
7:52 AM43 °FClear.17 mph79%30.17 "Hg10 mi
6:52 AM44 °FClear.18 mph76%30.13 "Hg10 mi
Weather by CustomWeather, © 2015

See weather overviewHow to use our weather pages